Other Public Products
Issued by NWS Grand Forks, ND

Home | Current Version | Previous Version | Graphics & Text | Print | Product List | Glossary On
Versions: 1 2 3 4 5 6 7 8 9 10 11 12 13 14 15 16 17 18 19 20 21 22 23 24 25 26 27 28 29 30 31 32 33 34 35 36 37 38 39 40 41 42 43 44 45 46 47 48 49 50
000
FPUS83 KFGF 240510
OPUFGF
PRAIRIE TO PINES WEATHER ROUNDUP
NATIONAL WEATHER SERVICE EASTERN NORTH DAKOTA/GRAND FORKS ND
1200 AM CDT SAT JUN 24 2017

 **SATELLITE DATA USED TO AUGMENT SKY COVER AT AUTOMATED STATIONS**
 *****  WEATHER ACROSS EASTERN NORTH DAKOTA  *****

CITY           SKY/WX    TMP DP  RH WIND       PRES   REMARKS
GRAND FORKS    CLOUDY    56  43  61 NW12      29.97F
GRAND FORKS AF MOCLDY    53  40  62 NW8       29.98F
GRAND CITY NWS NOT AVBL
BUXTON         NOT AVBL
DEVILS LAKE    FAIR      49  41  74 W9        30.03S
FARGO          FAIR      53  40  61 W9        30.00F
WAHPETON ARPT  FAIR      54  36  50 NW9       30.03R
$$

 *****  WEATHER ACROSS CENTRAL AND WESTERN NORTH DAKOTA  *****

CITY           SKY/WX    TMP DP  RH WIND       PRES   REMARKS
JAMESTOWN      FAIR      49  40  71 W8        30.05S
BISMARCK       FAIR      54  38  54 W5        30.11S
MINOT          MOCLDY    51  43  74 NW14      30.10R
MINOT AFB      LGT RAIN  49  45  87 NW14G30   30.08R
GARRISON         N/A     53  37  54 W10       30.08F
WILLISTON      CLOUDY    54  38  54 N21G28    30.16R
DICKINSON      FAIR      47  32  56 W5        30.13F
HETTINGER      FAIR      41  30  65 CALM      30.19S
$$

 *****  OTHER OBSERVATIONS NORTHEAST NORTH DAKOTA  *****

CITY           SKY/WX    TMP DP  RH WIND       PRES   REMARKS
WALHALLA       NOT AVBL
LANGDON        FAIR      46  45  93 W8        29.99F
CAVALIER       CLOUDY    55  43  62 W10       29.96S
GRAFTON        CLOUDY    55  43  62 W12       29.98F
CANDO          NOT AVBL
FORT TOTTEN      N/A     53  40  61 NW7       29.95S
ROLLA            N/A     50  37  62 NW17G26   30.02S
RUGBY          NOT AVBL
 ***** THE ABOVE OBSERVATIONS ARE NON NWS ARE NOT QUALITY
        CONTROLLED AND MAY MIS-REPORT RAIN FOR SNOW...
$$

 *****  OTHER OBSERVATIONS SOUTHEAST NORTH DAKOTA *****

CITY           SKY/WX    TMP DP  RH WIND       PRES   REMARKS
COOPERSTOWN    FAIR      48  41  76 NW7       30.03S
VALLEY CITY    FAIR      48  41  76 NW6       30.05F
OAKES          NOT AVBL
GWINNER        CLEAR     52  39  62 NW7       30.06S
BUFFALO        NOT AVBL
WYNDMERE       NOT AVBL
 ***** THE ABOVE OBSERVATIONS ARE NON NWS ARE NOT QUALITY
       CONTROLLED AND MAY MIS-REPORT RAIN FOR SNOW...
$$

  *****  WEATHER ACROSS NORTHERN MINNESOTA  *****

CITY           SKY/WX    TMP DP  RH WIND       PRES   REMARKS
FLAG ISLAND    CLOUDY    54  50  87 W13       29.87S
WARROAD        CLOUDY    54  48  82 W8        29.90F
ROSEAU           N/A     54  46  76 W9        29.91S
HALLOCK        CLOUDY    55  45  67 W8        29.94F
THF RVR FALLS  CLOUDY    53  42  66 W10       29.96F
HALSTAD        NOT AVBL
FOSSTON        CLOUDY    48  39  71 W9        29.97S
BAUDETTE       CLOUDY    53  49  86 W13       29.89R
WASKISH        CLOUDY    55  48  76 W10       29.91S
CROOKSTON      CLOUDY    54  43  66 NW9       29.98S
$$
  *****  WEATHER ACROSS CENTRAL AND WEST MINNESOTA  *****

CITY           SKY/WX    TMP DP  RH WIND       PRES   REMARKS
BEMIDJI        CLOUDY    52  45  77 W8        29.94S
PARK RAPIDS    CLOUDY    55  38  52 NW13      29.96S
WADENA         CLOUDY    54  41  62 NW8       29.98R
DETROIT LAKES  MOCLDY    54  39  58 NW12G17   30.00S
MOORHEAD       FAIR      54  39  58 NW8       30.01F
FERGUS FALLS   FAIR      54  43  66 NW12      30.00R
ELBOW LAKE     MOCLDY    53  42  65 NW9       30.02R
MORRIS MN      FAIR      54  43  66 NW8       30.02R
STAPLES        CLOUDY    55  39  54 NW13      29.97R
WHEATON        FAIR      55  41  58 W9        30.05R
$$
  *****  WEATHER ELSEWHERE ACROSS MINNESOTA  *****

CITY           SKY/WX    TMP DP  RH WIND       PRES   REMARKS
DULUTH         MOCLDY    53  50  89 NW9       29.86R
INTRNTL FALLS  CLOUDY    53  50  89 W10       29.86S
ELY            CLOUDY    54  52  94 W10       29.84R
CLOQUET        FAIR      54  46  76 W7        29.88S
BRAINERD       MOCLDY    56  48  74 NW7       29.95S
HIBBING        CLOUDY    52  48  86 NW15G22   29.88S
ALEXANDRIA     FAIR      56  43  61 NW10G20   30.01R
SAINT CLOUD    FAIR      57  47  69 W9        29.95S
MINNEAPOLIS    MOCLDY    62  48  60 NW8       29.94R
$$

  *****  WEATHER ACROSS SOUTH DAKOTA  *****

CITY           SKY/WX    TMP DP  RH WIND       PRES   REMARKS
SIOUX FALLS    FAIR      53  43  68 W8        30.09R
BROOKINGS      FAIR      50  42  74 NW6       30.09R
WATERTOWN      FAIR      54  43  66 NW9       30.08R
HURON          FAIR      48  44  86 NW6       30.12R
SISSETON         N/A     57  40  52 NW14      30.04R
ABERDEEN       FAIR      50  40  68 NW7       30.10S
MITCHELL       FAIR      55  40  56 W6        30.12R
PIERRE         FAIR      53  39  59 N8        30.14R
MOBRIDGE       FAIR      47  38  71 CALM      30.12R
RAPID CITY     FAIR      48  28  46 NW7       30.24R
$$

  *****  SOME WEATHER IN NEARBY STATES *****

CITY           SKY/WX    TMP DP  RH WIND       PRES   REMARKS
GLASGOW MT     FAIR      56  30  37 NW3       30.19S
GREAT FALLS MT CLOUDY    59  37  44 NE6       30.31R
CHEYENNE WY    FAIR      54  43  66 W3        30.36R
SCOTTSBLUFF NE FAIR      54  32  43 N9        30.28R
OMAHA NE       FAIR      61  49  64 N5        30.10R
DES MOINES IA  FAIR      65  51  60 NW7       30.04R
DAVENPORT IA   FAIR      62  56  80 W14       29.95R
CHICAGO IL     FAIR      68  54  60 NW8       29.85R
EAU CLAIRE WI  CLOUDY    61  52  72 W14G24    29.88R
LA CROSSE WI   CLOUDY    68  54  60 W14       29.89R
$$

  *****  SOME NATIONAL WEATHER *****

CITY           SKY/WX    TMP DP  RH WIND       PRES   REMARKS
LA GUARDIA NY  MOCLDY    82  74  76 SW9       29.61F
RALEIGH NC     FAIR      81  75  82 SW17G32   29.86S
ATLANTA GA     FAIR      72  71  97 SW9       29.98F
NEW ORLEANS LA MOCLDY    80  78  94 S6        29.99R
OKLAHOMA CITY  MOCLDY    74  55  51 NE16G26   30.05S
ALBUQUERQUE NM FAIR      76  54  46 E29G41    30.14R
SALT LAKE CITY FAIR      74  39  28 SE3       30.14R
LOS ANGELES CA CLOUDY    63  61  93 W8        29.92S
BOISE ID       FAIR      71  33  24 SW3       30.11S
SEATTLE WA     FAIR      67  51  56 N9        30.15R
$$

*** WEATHER ACROSS MANITOBA...SASKATCHEWAN AND ONTARIO ***
                ***ONTARIO***

CITY           SKY/WX    TMP DP  RH WIND       PRES   REMARKS
GERALDTON      PTCLDY    52  50  93 NW3       29.71R
THUNDER BAY    MOCLDY    57  54  88 W5        29.74R
SIOUX LOOKOUT  LGT RAIN  55  54  94 NW5       29.78R
TORONTO        PTCLDY    66  55  68 NW10      29.62S
BIG TROUT LK   CLEAR     46  43  87 N10G17    29.84R
PICKLE LAKE    NOT AVBL
DRYDEN         LGT RAIN  54  52  94 W8        29.81R
KENORA         LGT RAIN  52  50  93 NW7       29.85S FOG
$$
                *** MANITOBA***

CITY           SKY/WX    TMP DP  RH WIND       PRES   REMARKS
BRANDON        PTCLDY    45  41  87 NW9       30.00S
DAUPHIN        PTCLDY    48  45  87 NW8       30.02R
ISLAND LAKE    PTCLDY    48  39  71 N13G21    29.95R
PILOT MOUND      N/A     46  41  81 NW10        N/A
THE PAS        LGT RAIN  48  45  87 N14G21    30.08R FOG
THOMPSON       MOCLDY    45  39  81 N5        30.04R
WINNIPEG       PTCLDY    48  46  93 W9        29.92S
LYNN LAKE      CLOUDY    48  37  66 NW7       30.11R
CHURCHILL      MOCLDY    46  36  66 W2        30.02S
GILLAM         MOCLDY    48  37  66 NE6       30.03R
$$
                ***SASKATCHEWAN***

CITY           SKY/WX    TMP DP  RH WIND       PRES   REMARKS
ESTEVAN        MOCLDY    46  43  87 NW8       30.13R
KINDERSLEY     PTCLDY    52  41  66 N7        30.20R
LLOYDMINSTER   CLEAR     54  41  62 NW5       30.20R
PRINCE ALBERT  PTCLDY    39  37  93 VRB2      30.21S
REGINA         PTCLDY    43  37  81 NW9       30.17R
YORKTON        MOCLDY    45  39  81 NW14G20   30.11R
N. BATTLEFORD  CLEAR     50  37  62 E7        30.21R



USA.gov is the U.S. government's official web portal to all federal, state and local government web resources and services.